Location: Malvern Link
(52.1333°N, 2.3000°W)
Time: 02:04:04
(UTC+00:00)

CUTE 1.7 + AOD 2 - Pass Details

Date: 04 July 2022
Orbit: 589 x 608 km, 97.7° (Epoch: 07 August)

Event Time Altitude Azimuth Distance (km) Brightness Sun altitude
Rises 02:38:04 0° 32° (NNE) 2,852 ? -8.6°
Reaches altitude 10° 02:41:55 10° 68° (ENE) 1,936 ? -8.3°
Maximum altitude 02:43:10 11° 85° (E) 1,858 ? -8.2°
Drops below altitude 10° 02:44:25 10° 103° (ESE) 1,928 ? -8.1°
Sets 02:48:12 0° 139° (SE) 2,818 ? -7.7°
